Time,TemperatureF,DewpointF,PressureIn,WindDirection,WindDirectionDegrees,WindSpeedMPH,WindSpeedGustMPH,Humidity,HourlyPrecipIn,Conditions,Clouds,dailyrainin,SoftwareType,DateUTC
2013-05-02 00:00:00,71.4,59.5,29.89,SE,134,0.0,7.4,66,0.00,,---,0.00,VWS V14.00,2013-05-02 05:00:00,
2013-05-02 00:10:00,71.1,59.6,29.92,SE,124,4.9,6.3,67,0.00,,---,0.00,VWS V14.00,2013-05-02 05:10:00,
2013-05-02 00:20:00,70.7,59.6,29.95,ESE,122,2.7,6.3,68,0.00,,---,0.00,VWS V14.00,2013-05-02 05:20:00,
2013-05-02 00:30:00,70.3,59.7,29.95,ENE,75,5.4,5.8,69,0.00,,---,0.00,VWS V14.00,2013-05-02 05:30:00,
2013-05-02 00:40:00,70.2,59.9,29.98,ENE,63,0.0,6.9,70,0.00,,---,0.00,VWS V14.00,2013-05-02 05:40:00,
2013-05-02 00:50:00,69.8,59.6,29.98,ENE,64,0.0,0.0,70,0.00,,---,0.00,VWS V14.00,2013-05-02 05:50:00,
2013-05-02 01:00:00,69.6,59.8,29.98,ENE,67,0.0,0.0,71,0.00,,---,0.00,VWS V14.00,2013-05-02 06:00:00,
2013-05-02 01:10:00,69.3,59.5,29.98,ENE,67,0.0,0.0,71,0.00,,---,0.00,VWS V14.00,2013-05-02 06:10:00,
2013-05-02 01:20:00,68.9,59.5,30.01,NE,56,0.0,4.0,72,0.00,,---,0.00,VWS V14.00,2013-05-02 06:20:00,
2013-05-02 01:30:00,68.7,59.7,30.01,ESE,106,3.6,4.5,73,0.00,,---,0.00,VWS V14.00,2013-05-02 06:30:00,
2013-05-02 01:40:00,68.7,59.7,29.98,East,82,0.0,4.9,73,0.00,,---,0.00,VWS V14.00,2013-05-02 06:40:00,
2013-05-02 01:50:00,68.5,59.9,29.98,East,85,2.7,5.8,74,0.00,,---,0.00,VWS V14.00,2013-05-02 06:50:00,
2013-05-02 02:00:00,68.4,59.8,29.98,East,94,0.0,6.3,74,0.00,,---,0.00,VWS V14.00,2013-05-02 07:00:00,
2013-05-02 02:10:00,68.2,60.0,29.98,East,100,0.0,3.1,75,0.00,,---,0.00,VWS V14.00,2013-05-02 07:10:00,
2013-05-02 02:20:00,68.2,60.0,30.01,East,99,0.0,3.1,75,0.00,,---,0.00,VWS V14.00,2013-05-02 07:20:00,
2013-05-02 02:30:00,68.4,60.1,30.01,West,274,3.1,5.4,75,0.00,,---,0.00,VWS V14.00,2013-05-02 07:30:00,
2013-05-02 02:40:00,68.4,60.1,30.01,ESE,114,3.1,4.0,75,0.00,,---,0.00,VWS V14.00,2013-05-02 07:40:00,
2013-05-02 02:50:00,68.4,60.1,30.01,East,95,0.0,4.9,75,0.00,,---,0.00,VWS V14.00,2013-05-02 07:50:00,
2013-05-02 03:00:00,68.4,60.1,30.01,ENE,64,0.0,4.0,75,0.00,,---,0.00,VWS V14.00,2013-05-02 08:00:00,
2013-05-02 03:10:00,68.2,60.3,29.98,West,267,0.0,4.0,76,0.00,,---,0.00,VWS V14.00,2013-05-02 08:10:00,
2013-05-02 03:20:00,68.2,60.3,29.98,ESE,103,3.1,5.4,76,0.00,,---,0.00,VWS V14.00,2013-05-02 08:20:00,
2013-05-02 03:30:00,68.0,60.2,29.98,NW,318,3.6,4.5,76,0.00,,---,0.00,VWS V14.00,2013-05-02 08:30:00,
2013-05-02 03:40:00,67.8,60.0,30.01,WNW,300,0.0,5.8,76,0.00,,---,0.00,VWS V14.00,2013-05-02 08:40:00,
2013-05-02 03:50:00,67.6,59.8,30.01,North,351,0.0,5.8,76,0.00,,---,0.00,VWS V14.00,2013-05-02 08:50:00,
2013-05-02 04:00:00,67.6,59.8,30.01,NW,313,5.4,5.4,76,0.00,,---,0.00,VWS V14.00,2013-05-02 09:00:00,
2013-05-02 04:10:00,66.0,56.7,30.01,WNW,291,2.7,5.8,72,0.00,,---,0.00,VWS V14.00,2013-05-02 09:10:00,
2013-05-02 04:20:00,64.0,54.1,30.04,North,356,0.0,8.3,70,0.00,,---,0.00,VWS V14.00,2013-05-02 09:20:00,
2013-05-02 04:30:00,62.6,52.7,30.04,NNW,339,3.6,7.4,70,0.00,,---,0.00,VWS V14.00,2013-05-02 09:30:00,
2013-05-02 04:40:00,61.3,51.1,30.04,NNW,330,5.4,7.4,69,0.00,,---,0.00,VWS V14.00,2013-05-02 09:40:00,
2013-05-02 04:50:00,60.3,49.7,30.07,NW,325,2.7,11.0,68,0.00,,---,0.00,VWS V14.00,2013-05-02 09:50:00,
2013-05-02 05:00:00,59.4,48.8,30.07,NNW,342,2.7,9.6,68,0.00,,---,0.00,VWS V14.00,2013-05-02 10:00:00,
2013-05-02 05:10:00,58.6,48.1,30.07,NNW,327,4.0,8.7,68,0.00,,---,0.00,VWS V14.00,2013-05-02 10:10:00,
2013-05-02 05:20:00,57.9,47.8,30.07,NNW,341,5.4,9.2,69,0.00,,---,0.00,VWS V14.00,2013-05-02 10:20:00,
2013-05-02 05:30:00,56.7,46.6,30.07,NNW,340,4.5,7.4,69,0.00,,---,0.00,VWS V14.00,2013-05-02 10:30:00,
2013-05-02 05:40:00,55.8,46.1,30.10,NNW,346,5.4,7.4,70,0.00,,---,0.00,VWS V14.00,2013-05-02 10:40:00,
2013-05-02 05:50:00,54.5,44.9,30.10,NNW,340,0.0,7.4,70,0.00,,---,0.00,VWS V14.00,2013-05-02 10:50:00,
2013-05-02 06:00:00,54.1,45.0,30.10,NNW,332,5.4,8.3,71,0.00,,---,0.00,VWS V14.00,2013-05-02 11:00:00,
2013-05-02 06:10:00,53.4,43.9,30.10,NNW,337,3.6,8.3,70,0.00,,---,0.00,VWS V14.00,2013-05-02 11:10:00,
2013-05-02 06:20:00,53.1,43.5,30.13,NNW,339,4.5,8.7,70,0.00,,---,0.00,VWS V14.00,2013-05-02 11:20:00,
2013-05-02 06:30:00,52.9,43.4,30.13,NNW,338,2.7,7.4,70,0.00,,---,0.00,VWS V14.00,2013-05-02 11:30:00,
2013-05-02 06:40:00,52.7,43.2,30.13,NW,323,4.0,8.3,70,0.00,,---,0.00,VWS V14.00,2013-05-02 11:40:00,
2013-05-02 06:50:00,52.7,43.2,30.13,NNW,335,0.0,5.8,70,0.00,,---,0.00,VWS V14.00,2013-05-02 11:50:00,
2013-05-02 07:00:00,52.5,43.0,30.13,NNW,333,4.5,8.7,70,0.00,,---,0.00,VWS V14.00,2013-05-02 12:00:00,
2013-05-02 07:10:00,52.2,42.7,30.16,NNW,338,2.7,8.3,70,0.00,,---,0.00,VWS V14.00,2013-05-02 12:10:00,
2013-05-02 07:20:00,51.6,42.2,30.16,NNW,343,3.6,7.4,70,0.00,,---,0.00,VWS V14.00,2013-05-02 12:20:00,
2013-05-02 07:30:00,50.7,41.7,30.16,NNW,328,3.6,8.3,71,0.00,,---,0.00,VWS V14.00,2013-05-02 12:30:00,
2013-05-02 07:40:00,49.8,41.2,30.16,NW,322,2.7,7.4,72,0.00,,---,0.00,VWS V14.00,2013-05-02 12:40:00,
2013-05-02 07:50:00,49.1,41.2,30.16,NNW,332,3.1,8.3,74,0.00,,---,0.00,VWS V14.00,2013-05-02 12:50:00,
2013-05-02 08:00:00,48.7,41.5,30.16,WSW,243,4.0,7.4,76,0.00,,---,0.00,VWS V14.00,2013-05-02 13:00:00,
2013-05-02 08:10:00,49.1,41.9,30.16,NW,323,4.5,9.2,76,0.00,,---,0.00,VWS V14.00,2013-05-02 13:10:00,
2013-05-02 08:20:00,49.3,42.4,30.19,NNW,344,5.8,8.3,77,0.00,,---,0.00,VWS V14.00,2013-05-02 13:20:00,
2013-05-02 08:30:00,49.5,42.2,30.19,North,6,6.3,8.7,76,0.00,,---,0.00,VWS V14.00,2013-05-02 13:30:00,
2013-05-02 08:40:00,49.5,42.2,30.19,NNW,330,3.6,12.5,76,0.00,,---,0.00,VWS V14.00,2013-05-02 13:40:00,
2013-05-02 08:50:00,49.6,42.4,30.19,NNW,342,4.0,6.9,76,0.00,,---,0.00,VWS V14.00,2013-05-02 13:50:00,
2013-05-02 09:00:00,49.8,42.2,30.19,NNW,330,4.5,9.6,75,0.00,,---,0.00,VWS V14.00,2013-05-02 14:00:00,
2013-05-02 09:10:00,50.0,42.4,30.19,NNW,341,0.0,7.8,75,0.00,,---,0.00,VWS V14.00,2013-05-02 14:10:00,
2013-05-02 09:20:00,50.2,42.6,30.19,NNW,342,6.3,7.8,75,0.00,,---,0.00,VWS V14.00,2013-05-02 14:20:00,
2013-05-02 09:30:00,50.4,42.4,30.19,NNW,340,3.1,7.8,74,0.00,,---,0.00,VWS V14.00,2013-05-02 14:30:00,
2013-05-02 09:40:00,50.5,42.6,30.19,NNW,332,3.6,7.4,74,0.00,,---,0.00,VWS V14.00,2013-05-02 14:40:00,
2013-05-02 09:50:00,50.5,42.2,30.22,NNW,338,2.7,6.7,73,0.00,,---,0.00,VWS V14.00,2013-05-02 14:50:00,
2013-05-02 10:00:00,50.4,41.7,30.22,NNW,328,6.9,8.7,72,0.00,,---,0.00,VWS V14.00,2013-05-02 15:00:00,
2013-05-02 10:10:00,50.0,41.3,30.22,NNW,346,5.4,11.6,72,0.00,,---,0.00,VWS V14.00,2013-05-02 15:10:00,
2013-05-02 10:20:00,50.2,41.5,30.22,NNW,339,6.7,7.4,72,0.00,,---,0.00,VWS V14.00,2013-05-02 15:20:00,
2013-05-02 10:30:00,50.4,41.7,30.22,NNW,327,5.4,7.4,72,0.00,,---,0.00,VWS V14.00,2013-05-02 15:30:00,
2013-05-02 10:40:00,50.4,41.3,30.22,NNE,19,4.0,9.6,71,0.00,,---,0.00,VWS V14.00,2013-05-02 15:40:00,
2013-05-02 10:50:00,50.7,41.7,30.22,SE,128,2.7,9.2,71,0.00,,---,0.00,VWS V14.00,2013-05-02 15:50:00,
2013-05-02 11:00:00,51.1,41.7,30.22,NNW,329,4.0,6.9,70,0.00,,---,0.00,VWS V14.00,2013-05-02 16:00:00,
2013-05-02 11:10:00,50.7,41.3,30.22,North,356,4.9,10.5,70,0.00,,---,0.00,VWS V14.00,2013-05-02 16:10:00,
2013-05-02 11:20:00,50.5,40.8,30.22,NW,320,5.4,8.3,69,0.00,,---,0.00,VWS V14.00,2013-05-02 16:20:00,
2013-05-02 11:30:00,51.1,41.3,30.22,NNW,338,3.6,8.3,69,0.00,,---,0.00,VWS V14.00,2013-05-02 16:30:00,
2013-05-02 11:40:00,51.3,41.5,30.25,NNW,338,6.7,8.7,69,0.00,,---,0.00,VWS V14.00,2013-05-02 16:40:00,
2013-05-02 11:50:00,50.9,40.7,30.25,NW,315,0.0,7.4,68,0.00,,---,0.00,VWS V14.00,2013-05-02 16:50:00,
2013-05-02 12:00:00,50.7,40.6,30.25,NNW,338,4.5,13.0,68,0.00,,---,0.00,VWS V14.00,2013-05-02 17:00:00,
2013-05-02 12:10:00,50.9,40.7,30.25,North,351,4.0,8.7,68,0.00,,---,0.00,VWS V14.00,2013-05-02 17:10:00,
2013-05-02 12:20:00,51.1,40.5,30.25,NNW,331,4.5,10.5,67,0.00,,---,0.00,VWS V14.00,2013-05-02 17:20:00,
2013-05-02 12:30:00,51.1,40.5,30.25,NNW,333,4.0,8.7,67,0.00,,---,0.00,VWS V14.00,2013-05-02 17:30:00,
2013-05-02 12:40:00,51.3,40.3,30.25,NNW,343,5.4,13.0,66,0.00,,---,0.00,VWS V14.00,2013-05-02 17:40:00,
2013-05-02 12:50:00,51.3,40.3,30.25,NW,309,4.9,9.6,66,0.00,,---,0.00,VWS V14.00,2013-05-02 17:50:00,
2013-05-02 13:00:00,51.4,40.5,30.25,NW,318,8.3,8.7,66,0.00,,---,0.00,VWS V14.00,2013-05-02 18:00:00,
2013-05-02 13:10:00,51.6,40.7,30.25,North,351,8.3,14.3,66,0.00,,---,0.00,VWS V14.00,2013-05-02 18:10:00,
2013-05-02 13:20:00,52.0,40.6,30.25,North,356,4.9,9.6,65,0.00,,---,0.00,VWS V14.00,2013-05-02 18:20:00,
2013-05-02 13:30:00,52.5,41.1,30.25,NW,312,8.3,13.4,65,0.00,,---,0.00,VWS V14.00,2013-05-02 18:30:00,
2013-05-02 13:40:00,51.8,40.0,30.25,NNW,332,4.9,11.2,64,0.00,,---,0.00,VWS V14.00,2013-05-02 18:40:00,
2013-05-02 13:50:00,51.3,39.1,30.28,NNW,329,3.6,11.2,63,0.00,,---,0.00,VWS V14.00,2013-05-02 18:50:00,
2013-05-02 14:00:00,51.1,38.9,30.28,NW,315,4.5,9.6,63,0.00,,---,0.00,VWS V14.00,2013-05-02 19:00:00,
2013-05-02 14:10:00,50.7,38.6,30.28,NNW,333,6.9,10.5,63,0.00,,---,0.00,VWS V14.00,2013-05-02 19:10:00,
2013-05-02 14:20:00,49.8,37.8,30.28,NW,318,3.1,10.5,63,0.00,,---,0.00,VWS V14.00,2013-05-02 19:20:00,
2013-05-02 14:30:00,49.3,37.2,30.28,NNW,340,7.4,12.5,63,0.00,,---,0.00,VWS V14.00,2013-05-02 19:30:00,
2013-05-02 14:40:00,48.9,37.3,30.28,North,351,4.9,10.1,64,0.00,,---,0.00,VWS V14.00,2013-05-02 19:40:00,
2013-05-02 14:50:00,48.6,37.0,30.28,WNW,284,4.0,10.5,64,0.00,,---,0.00,VWS V14.00,2013-05-02 19:50:00,
2013-05-02 15:00:00,48.4,36.8,30.28,SSE,152,4.0,11.0,64,0.00,,---,0.00,VWS V14.00,2013-05-02 20:00:00,
2013-05-02 15:10:00,48.4,36.8,30.28,North,356,3.6,11.6,64,0.00,,---,0.00,VWS V14.00,2013-05-02 20:10:00,
2013-05-02 15:20:00,48.2,36.6,30.28,NNW,328,4.5,12.5,64,0.00,,---,0.00,VWS V14.00,2013-05-02 20:20:00,
2013-05-02 15:30:00,47.8,36.3,30.28,NNW,347,4.0,11.2,64,0.00,,---,0.00,VWS V14.00,2013-05-02 20:30:00,
2013-05-02 15:40:00,47.8,36.3,30.28,North,356,3.1,8.7,64,0.00,,---,0.00,VWS V14.00,2013-05-02 20:40:00,
2013-05-02 15:50:00,47.3,36.5,30.28,NNW,332,2.7,9.6,66,0.00,,---,0.00,VWS V14.00,2013-05-02 20:50:00,
2013-05-02 16:00:00,46.9,36.9,30.28,SE,129,2.7,11.6,68,0.00,,---,0.00,VWS V14.00,2013-05-02 21:00:00,
2013-05-02 16:10:00,46.9,36.9,30.28,NW,309,5.4,11.6,68,0.00,,---,0.00,VWS V14.00,2013-05-02 21:10:00,
2013-05-02 16:20:00,46.9,36.9,30.28,NNW,338,4.5,11.0,68,0.00,,---,0.00,VWS V14.00,2013-05-02 21:20:00,
2013-05-02 16:30:00,46.8,36.8,30.28,NW,312,3.6,12.5,68,0.00,,---,0.00,VWS V14.00,2013-05-02 21:30:00,
2013-05-02 16:40:00,46.6,37.0,30.28,North,351,4.0,12.5,69,0.00,,---,0.00,VWS V14.00,2013-05-02 21:40:00,
2013-05-02 16:50:00,46.6,37.0,30.28,NNW,336,3.1,9.6,69,0.00,,---,0.00,VWS V14.00,2013-05-02 21:50:00,
2013-05-02 17:00:00,45.9,36.6,30.28,NNW,336,3.1,11.6,70,0.00,,---,0.00,VWS V14.00,2013-05-02 22:00:00,
2013-05-02 17:10:00,45.5,36.7,30.28,NW,314,2.7,8.7,71,0.00,,---,0.00,VWS V14.00,2013-05-02 22:10:00,
2013-05-02 17:20:00,45.3,37.2,30.28,NNW,336,3.6,12.5,73,0.00,,---,0.00,VWS V14.00,2013-05-02 22:20:00,
2013-05-02 17:30:00,44.8,37.0,30.28,NNW,328,8.3,15.2,74,0.00,,---,0.00,VWS V14.00,2013-05-02 22:30:00,
2013-05-02 17:40:00,44.4,36.7,30.28,NW,313,3.6,12.5,74,0.00,,---,0.00,VWS V14.00,2013-05-02 22:40:00,
2013-05-02 17:50:00,44.4,37.0,30.28,NNW,334,8.7,11.2,75,0.00,,---,0.00,VWS V14.00,2013-05-02 22:50:00,
2013-05-02 18:00:00,44.6,37.2,30.28,NNW,342,6.3,13.9,75,0.00,,---,0.00,VWS V14.00,2013-05-02 23:00:00,
2013-05-02 18:10:00,45.1,37.7,30.28,North,351,6.7,9.6,75,0.00,,---,0.00,VWS V14.00,2013-05-02 23:10:00,
2013-05-02 18:20:00,45.1,37.7,30.31,SSE,154,4.9,12.5,75,0.00,,---,0.00,VWS V14.00,2013-05-02 23:20:00,
2013-05-02 18:30:00,45.3,37.5,30.31,North,351,6.9,10.5,74,0.00,,---,0.00,VWS V14.00,2013-05-02 23:30:00,
2013-05-02 18:40:00,45.5,37.7,30.31,NNW,336,4.0,8.7,74,0.00,,---,0.00,VWS V14.00,2013-05-02 23:40:00,
2013-05-02 18:50:00,45.1,37.0,30.31,NNW,341,5.8,12.1,73,0.00,,---,0.00,VWS V14.00,2013-05-02 23:50:00,
2013-05-02 19:00:00,45.0,36.8,30.31,North,351,6.7,11.6,73,0.00,,---,0.00,VWS V14.00,2013-05-03 00:00:00,
2013-05-02 19:10:00,45.1,37.0,30.31,NNW,334,4.9,9.2,73,0.00,,---,0.00,VWS V14.00,2013-05-03 00:10:00,
2013-05-02 19:20:00,45.1,36.7,30.31,North,356,4.5,11.2,72,0.00,,---,0.00,VWS V14.00,2013-05-03 00:20:00,
2013-05-02 19:30:00,45.0,36.5,30.31,NNW,339,6.7,9.6,72,0.00,,---,0.00,VWS V14.00,2013-05-03 00:30:00,
2013-05-02 19:40:00,44.8,36.3,30.31,NNW,331,4.0,10.1,72,0.00,,---,0.00,VWS V14.00,2013-05-03 00:40:00,
2013-05-02 19:50:00,44.6,36.5,30.31,NNW,332,2.7,8.7,73,0.00,,---,0.00,VWS V14.00,2013-05-03 00:50:00,
2013-05-02 20:00:00,44.8,36.7,30.31,NW,311,3.1,9.6,73,0.00,,---,0.00,VWS V14.00,2013-05-03 01:00:00,
2013-05-02 20:10:00,45.0,36.5,30.31,NNW,330,3.6,12.1,72,0.00,,---,0.00,VWS V14.00,2013-05-03 01:10:00,
2013-05-02 20:20:00,45.1,36.3,30.31,NW,311,4.5,13.0,71,0.00,,---,0.00,VWS V14.00,2013-05-03 01:20:00,
2013-05-02 20:30:00,45.0,36.1,30.31,NNW,345,4.9,9.6,71,0.00,,---,0.00,VWS V14.00,2013-05-03 01:30:00,
2013-05-02 20:40:00,45.0,36.1,30.31,NNW,342,2.7,7.8,71,0.00,,---,0.00,VWS V14.00,2013-05-03 01:40:00,
2013-05-02 20:50:00,45.1,36.3,30.31,North,356,6.7,6.9,71,0.00,,---,0.00,VWS V14.00,2013-05-03 01:50:00,
2013-05-02 21:00:00,45.3,36.5,30.31,NNW,334,4.9,9.2,71,0.00,,---,0.00,VWS V14.00,2013-05-03 02:00:00,
2013-05-02 21:10:00,45.7,36.5,30.34,NNW,343,4.5,8.3,70,0.00,,---,0.00,VWS V14.00,2013-05-03 02:10:00,
2013-05-02 21:20:00,45.9,36.3,30.31,North,356,5.4,12.1,69,0.00,,---,0.00,VWS V14.00,2013-05-03 02:20:00,
2013-05-02 21:30:00,45.9,35.9,30.31,NW,321,4.0,8.3,68,0.00,,---,0.00,VWS V14.00,2013-05-03 02:30:00,
2013-05-02 21:40:00,45.9,35.9,30.34,NNW,347,4.0,8.7,68,0.00,,---,0.00,VWS V14.00,2013-05-03 02:40:00,
2013-05-02 21:50:00,45.9,35.5,30.34,NNW,339,3.6,9.6,67,0.00,,---,0.00,VWS V14.00,2013-05-03 02:50:00,
2013-05-02 22:00:00,45.9,35.5,30.34,NNW,342,4.0,8.7,67,0.00,,---,0.00,VWS V14.00,2013-05-03 03:00:00,
2013-05-02 22:10:00,45.7,35.4,30.34,NNW,338,4.0,5.8,67,0.00,,---,0.00,VWS V14.00,2013-05-03 03:10:00,
2013-05-02 22:20:00,45.5,35.2,30.34,NNW,333,4.5,6.7,67,0.00,,---,0.00,VWS V14.00,2013-05-03 03:20:00,
2013-05-02 22:30:00,45.5,35.2,30.34,NNW,340,2.7,8.7,67,0.00,,---,0.00,VWS V14.00,2013-05-03 03:30:00,
2013-05-02 22:40:00,45.5,35.2,30.34,NNE,21,0.0,8.7,67,0.00,,---,0.00,VWS V14.00,2013-05-03 03:40:00,
2013-05-02 22:50:00,45.5,35.2,30.34,NW,316,4.0,6.3,67,0.00,,---,0.00,VWS V14.00,2013-05-03 03:50:00,
2013-05-02 23:00:00,45.5,35.6,30.34,NW,322,5.8,6.7,68,0.00,,---,0.00,VWS V14.00,2013-05-03 04:00:00,
2013-05-02 23:10:00,45.7,35.4,30.34,NW,320,4.0,10.1,67,0.00,,---,0.00,VWS V14.00,2013-05-03 04:10:00,
2013-05-02 23:20:00,45.9,35.5,30.31,NW,313,4.5,6.9,67,0.00,,---,0.00,VWS V14.00,2013-05-03 04:20:00,
2013-05-02 23:30:00,45.9,35.5,30.31,NW,321,3.1,5.4,67,0.00,,---,0.00,VWS V14.00,2013-05-03 04:30:00,
2013-05-02 23:40:00,46.0,35.3,30.31,NNW,333,2.7,8.3,66,0.00,,---,0.00,VWS V14.00,2013-05-03 04:40:00,
2013-05-02 23:50:00,46.2,34.7,30.31,NNW,328,6.3,8.3,64,0.00,,---,0.00,VWS V14.00,2013-05-03 04:50:00,